timestamp,wind_dir_avg,wind_spd_max_dir,wind_spd_avg,wind_spd_gust,battery_voltage,lat,long
2017-09-10 00:00:00+00:00,53.0,73.0,2.86,3.92,12.6,47.59359,-54.27349
2017-09-10 00:10:00+00:00,75.0,78.0,6.59,7.51,12.6,47.59359,-54.27349
2017-09-10 00:20:00+00:00,74.0,74.0,6.5,7.48,12.6,47.59359,-54.27349
2017-09-10 00:30:00+00:00,68.0,71.0,6.35,7.32,12.6,47.59359,-54.27349
2017-09-10 00:40:00+00:00,65.0,70.0,6.85,8.52,12.7,47.59359,-54.27349
2017-09-10 00:50:00+00:00,71.0,73.0,7.39,8.48,12.7,47.59359,-54.27349
2017-09-10 01:00:00+00:00,71.0,72.0,6.45,7.42,12.6,47.59359,-54.27349
2017-09-10 01:10:00+00:00,73.0,70.0,6.45,7.66,12.6,47.59359,-54.27349
2017-09-10 01:20:00+00:00,74.0,75.0,6.42,7.26,12.6,47.59359,-54.27349
2017-09-10 01:30:00+00:00,56.0,57.0,6.28,6.95,12.6,47.59359,-54.27349
2017-09-10 01:40:00+00:00,63.0,73.0,6.42,7.65,12.6,47.59359,-54.27349
2017-09-10 01:50:00+00:00,57.0,57.0,6.07,6.86,12.6,47.59359,-54.27349
2017-09-10 02:00:00+00:00,61.0,64.0,6.08,6.81,12.6,47.59359,-54.27349
2017-09-10 02:10:00+00:00,65.0,73.0,6.32,7.45,12.6,47.59359,-54.27349
2017-09-10 02:20:00+00:00,61.0,61.0,7.11,7.72,12.6,47.59359,-54.27349
2017-09-10 02:30:00+00:00,66.0,68.0,7.78,8.61,12.6,47.59359,-54.27349
2017-09-10 02:40:00+00:00,62.0,66.0,8.59,9.54,12.6,47.59359,-54.27349
2017-09-10 02:50:00+00:00,64.0,68.0,8.32,9.16,12.6,47.59359,-54.27349
2017-09-10 03:00:00+00:00,65.0,67.0,7.55,8.35,12.6,47.59359,-54.27349
2017-09-10 03:10:00+00:00,60.0,59.0,6.55,7.29,12.6,47.59359,-54.27349
2017-09-10 03:20:00+00:00,66.0,73.0,6.09,6.92,12.6,47.59359,-54.27349
2017-09-10 03:30:00+00:00,57.0,53.0,6.8,7.62,12.6,47.59359,-54.27349
2017-09-10 03:40:00+00:00,51.0,53.0,8.11,9.2,12.6,47.59359,-54.27349
2017-09-10 03:50:00+00:00,52.0,52.0,9.13,9.97,12.6,47.59359,-54.27349
2017-09-10 04:00:00+00:00,58.0,57.0,7.61,8.67,12.6,47.59359,-54.27349
2017-09-10 04:10:00+00:00,55.0,53.0,8.46,9.24,12.5,47.59359,-54.27349
2017-09-10 04:20:00+00:00,55.0,54.0,8.8,9.95,12.6,47.59359,-54.27349
2017-09-10 04:30:00+00:00,60.0,58.0,8.38,9.17,12.6,47.59359,-54.27349
2017-09-10 04:40:00+00:00,59.0,60.0,8.72,9.69,12.6,47.59359,-54.27349
2017-09-10 04:50:00+00:00,56.0,53.0,8.48,9.3,12.6,47.59359,-54.27349
2017-09-10 05:00:00+00:00,56.0,59.0,8.3,9.56,12.6,47.59359,-54.27349
2017-09-10 05:10:00+00:00,54.0,56.0,8.65,9.98,12.5,47.59359,-54.27349
2017-09-10 05:20:00+00:00,57.0,53.0,7.98,9.68,12.6,47.59359,-54.27349
2017-09-10 05:30:00+00:00,51.0,52.0,9.17,9.84,12.6,47.59359,-54.27349
2017-09-10 05:40:00+00:00,50.0,45.0,8.12,9.0,12.6,47.59359,-54.27349
2017-09-10 05:50:00+00:00,51.0,54.0,8.14,8.95,12.6,47.59359,-54.27349
2017-09-10 06:00:00+00:00,54.0,52.0,8.53,9.3,12.6,47.59359,-54.27349
2017-09-10 06:10:00+00:00,58.0,59.0,8.22,9.33,12.5,47.59359,-54.27349
2017-09-10 06:20:00+00:00,59.0,59.0,8.66,9.9,12.6,47.59359,-54.27349
2017-09-10 06:30:00+00:00,69.0,69.0,9.1,10.19,12.6,47.59359,-54.27349
2017-09-10 06:40:00+00:00,75.0,76.0,8.68,10.37,12.6,47.59359,-54.27349
2017-09-10 06:50:00+00:00,75.0,73.0,8.73,10.29,12.6,47.59359,-54.27349
2017-09-10 07:00:00+00:00,76.0,75.0,6.98,8.21,12.6,47.59359,-54.27349
2017-09-10 07:10:00+00:00,73.0,70.0,7.38,8.54,12.5,47.59359,-54.27349
2017-09-10 07:20:00+00:00,66.0,66.0,7.49,8.86,12.6,47.59359,-54.27349
2017-09-10 07:30:00+00:00,61.0,60.0,7.44,8.42,12.6,47.59359,-54.27349
2017-09-10 07:40:00+00:00,61.0,61.0,8.27,8.91,12.6,47.59359,-54.27349
2017-09-10 07:50:00+00:00,56.0,59.0,8.7,9.69,12.6,47.59359,-54.27349
2017-09-10 08:00:00+00:00,47.0,46.0,8.55,9.1,12.6,47.59359,-54.27349
2017-09-10 08:10:00+00:00,53.0,52.0,8.59,10.03,12.5,47.59359,-54.27349
2017-09-10 08:20:00+00:00,48.0,49.0,9.37,9.92,12.6,47.59359,-54.27349
2017-09-10 08:30:00+00:00,42.0,39.0,9.06,9.76,12.6,47.59359,-54.27349
2017-09-10 08:40:00+00:00,42.0,43.0,8.56,9.38,12.6,47.59359,-54.27349
2017-09-10 08:50:00+00:00,45.0,47.0,8.11,9.24,12.6,47.59359,-54.27349
2017-09-10 09:00:00+00:00,46.0,49.0,7.96,8.64,12.6,47.59359,-54.27349
2017-09-10 09:10:00+00:00,44.0,41.0,8.16,9.18,12.5,47.59359,-54.27349
2017-09-10 09:20:00+00:00,50.0,49.0,9.72,10.79,12.6,47.59359,-54.27349
2017-09-10 09:30:00+00:00,48.0,47.0,9.33,10.7,12.6,47.59359,-54.27349
2017-09-10 09:40:00+00:00,51.0,50.0,9.8,11.16,12.6,47.59359,-54.27349
2017-09-10 09:50:00+00:00,56.0,60.0,10.01,11.4,12.6,47.59359,-54.27349
2017-09-10 10:00:00+00:00,51.0,51.0,9.3,10.9,12.6,47.59359,-54.27349
2017-09-10 10:10:00+00:00,54.0,54.0,9.38,10.71,12.5,47.59359,-54.27349
2017-09-10 10:20:00+00:00,60.0,60.0,9.32,10.23,12.6,47.59359,-54.27349
2017-09-10 10:30:00+00:00,64.0,66.0,8.6,10.15,12.6,47.59359,-54.27349
2017-09-10 10:40:00+00:00,58.0,59.0,8.97,9.96,12.6,47.59359,-54.27349
2017-09-10 10:50:00+00:00,55.0,54.0,8.45,10.06,12.6,47.59359,-54.27349
2017-09-10 11:00:00+00:00,55.0,53.0,10.04,10.87,12.6,47.59359,-54.27349
2017-09-10 11:10:00+00:00,50.0,54.0,9.83,11.43,12.5,47.59359,-54.27349
2017-09-10 11:20:00+00:00,57.0,56.0,9.6,10.95,12.6,47.59359,-54.27349
2017-09-10 11:30:00+00:00,61.0,62.0,9.59,10.32,12.6,47.59359,-54.27349
2017-09-10 11:40:00+00:00,68.0,68.0,9.56,10.92,12.6,47.59359,-54.27349
2017-09-10 11:50:00+00:00,64.0,62.0,8.82,9.85,12.6,47.59359,-54.27349
2017-09-10 12:00:00+00:00,63.0,61.0,8.93,10.08,12.6,47.59359,-54.27349
2017-09-10 12:10:00+00:00,71.0,68.0,9.13,10.42,12.6,47.59359,-54.27349
2017-09-10 12:20:00+00:00,69.0,72.0,10.45,11.93,12.6,47.59359,-54.27349
2017-09-10 12:30:00+00:00,74.0,78.0,10.45,11.35,12.7,47.59359,-54.27349
2017-09-10 12:40:00+00:00,84.0,85.0,9.23,11.27,12.7,47.59359,-54.27349
2017-09-10 12:50:00+00:00,83.0,84.0,7.73,8.86,12.8,47.59359,-54.27349
2017-09-10 13:00:00+00:00,78.0,82.0,8.09,9.23,12.7,47.59359,-54.27349
2017-09-10 13:10:00+00:00,70.0,68.0,9.08,9.96,12.7,47.59359,-54.27349
2017-09-10 13:20:00+00:00,71.0,63.0,7.53,9.34,12.8,47.59359,-54.27349
2017-09-10 13:30:00+00:00,69.0,66.0,9.29,10.42,12.8,47.59359,-54.27349
2017-09-10 13:40:00+00:00,60.0,64.0,9.39,10.94,12.8,47.59359,-54.27349
2017-09-10 13:50:00+00:00,65.0,66.0,9.69,10.68,12.9,47.59359,-54.27349
2017-09-10 14:00:00+00:00,45.0,45.0,8.83,9.5,12.9,47.59359,-54.27349
2017-09-10 14:10:00+00:00,43.0,44.0,9.94,11.74,12.8,47.59359,-54.27349
2017-09-10 14:20:00+00:00,51.0,52.0,11.22,12.5,13.0,47.59359,-54.27349
2017-09-10 14:30:00+00:00,52.0,51.0,10.97,12.96,13.2,47.59359,-54.27349
2017-09-10 14:40:00+00:00,50.0,54.0,11.29,12.53,13.4,47.59359,-54.27349
2017-09-10 14:50:00+00:00,52.0,53.0,10.74,12.13,13.4,47.59359,-54.27349
2017-09-10 15:00:00+00:00,46.0,43.0,11.48,12.9,13.3,47.59359,-54.27349
2017-09-10 15:10:00+00:00,60.0,58.0,10.87,12.42,13.1,47.59359,-54.27349
2017-09-10 15:20:00+00:00,60.0,62.0,10.78,12.35,13.2,47.59359,-54.27349
2017-09-10 15:30:00+00:00,58.0,56.0,10.78,12.07,13.3,47.59359,-54.27349
2017-09-10 15:40:00+00:00,52.0,45.0,11.84,13.7,13.3,47.59359,-54.27349
2017-09-10 15:50:00+00:00,51.0,52.0,11.18,12.59,13.3,47.59359,-54.27349
2017-09-10 16:00:00+00:00,50.0,51.0,10.89,12.27,13.3,47.59359,-54.27349
2017-09-10 16:10:00+00:00,52.0,52.0,10.33,11.94,13.3,47.59359,-54.27349
2017-09-10 16:20:00+00:00,45.0,45.0,10.96,11.98,13.3,47.59359,-54.27349
2017-09-10 16:30:00+00:00,52.0,48.0,11.14,12.66,13.5,47.59359,-54.27349
2017-09-10 16:40:00+00:00,54.0,58.0,11.1,12.58,13.6,47.59359,-54.27349
2017-09-10 16:50:00+00:00,57.0,55.0,10.62,12.33,13.6,47.59359,-54.27349
2017-09-10 17:00:00+00:00,63.0,64.0,10.4,11.9,13.5,47.59359,-54.27349
2017-09-10 17:10:00+00:00,58.0,57.0,9.94,11.7,13.4,47.59359,-54.27349
2017-09-10 17:20:00+00:00,58.0,51.0,9.13,10.51,13.4,47.59359,-54.27349
2017-09-10 17:30:00+00:00,60.0,54.0,8.59,9.76,13.4,47.59359,-54.27349
2017-09-10 17:40:00+00:00,63.0,66.0,9.75,10.7,13.4,47.59359,-54.27349
2017-09-10 17:50:00+00:00,66.0,65.0,10.88,11.75,13.5,47.59359,-54.27349
2017-09-10 18:00:00+00:00,72.0,74.0,9.41,11.37,13.6,47.59359,-54.27349
2017-09-10 18:10:00+00:00,69.0,67.0,10.11,11.01,13.8,47.59359,-54.27349
2017-09-10 18:20:00+00:00,73.0,74.0,8.88,10.62,14.1,47.59359,-54.27349
2017-09-10 18:30:00+00:00,74.0,70.0,9.53,11.34,14.0,47.59359,-54.27349
2017-09-10 18:40:00+00:00,72.0,70.0,9.52,11.18,14.0,47.59359,-54.27349
2017-09-10 18:50:00+00:00,76.0,73.0,9.3,11.11,13.9,47.59359,-54.27349
2017-09-10 19:00:00+00:00,75.0,75.0,7.75,8.6,13.8,47.59359,-54.27349
2017-09-10 19:10:00+00:00,77.0,77.0,9.01,12.23,13.6,47.59359,-54.27349
2017-09-10 19:20:00+00:00,77.0,69.0,8.17,9.51,13.7,47.59359,-54.27349
2017-09-10 19:30:00+00:00,72.0,65.0,7.54,8.59,13.8,47.59359,-54.27349
2017-09-10 19:40:00+00:00,77.0,73.0,7.41,8.35,13.8,47.59359,-54.27349
2017-09-10 19:50:00+00:00,78.0,79.0,8.43,9.53,13.8,47.59359,-54.27349
2017-09-10 20:00:00+00:00,67.0,68.0,7.68,8.46,13.7,47.59359,-54.27349
2017-09-10 20:10:00+00:00,54.0,48.0,9.15,10.1,13.4,47.59359,-54.27349
2017-09-10 20:20:00+00:00,56.0,64.0,8.86,9.61,13.4,47.59359,-54.27349
2017-09-10 20:30:00+00:00,54.0,54.0,8.75,9.93,13.3,47.59359,-54.27349
2017-09-10 20:40:00+00:00,46.0,44.0,9.19,10.06,13.3,47.59359,-54.27349
2017-09-10 20:50:00+00:00,55.0,56.0,8.84,9.59,13.2,47.59359,-54.27349
2017-09-10 21:00:00+00:00,56.0,63.0,7.27,8.26,13.0,47.59359,-54.27349
2017-09-10 21:10:00+00:00,54.0,51.0,8.18,8.83,12.9,47.59359,-54.27349
2017-09-10 21:20:00+00:00,58.0,57.0,7.11,7.78,12.9,47.59359,-54.27349
2017-09-10 21:30:00+00:00,68.0,65.0,6.6,7.4,12.9,47.59359,-54.27349
2017-09-10 21:40:00+00:00,68.0,70.0,7.16,8.17,12.9,47.59359,-54.27349
2017-09-10 21:50:00+00:00,67.0,64.0,7.42,7.94,12.8,47.59359,-54.27349
2017-09-10 22:00:00+00:00,67.0,66.0,7.18,8.09,12.8,47.59359,-54.27349
2017-09-10 22:10:00+00:00,63.0,60.0,7.36,8.1,12.6,47.59359,-54.27349
2017-09-10 22:20:00+00:00,61.0,59.0,7.24,8.26,12.7,47.59359,-54.27349
2017-09-10 22:30:00+00:00,53.0,53.0,7.85,8.87,12.7,47.59359,-54.27349
2017-09-10 22:40:00+00:00,49.0,46.0,8.85,9.79,12.8,47.59359,-54.27349
2017-09-10 22:50:00+00:00,46.0,48.0,9.11,10.26,12.8,47.59359,-54.27349
2017-09-10 23:00:00+00:00,45.0,41.0,9.07,10.14,12.7,47.59359,-54.27349
2017-09-10 23:10:00+00:00,47.0,47.0,9.83,10.49,12.6,47.59359,-54.27349
2017-09-10 23:20:00+00:00,49.0,49.0,8.96,10.02,12.7,47.59359,-54.27349
2017-09-10 23:30:00+00:00,44.0,44.0,9.04,10.16,12.7,47.59359,-54.27349
2017-09-10 23:40:00+00:00,45.0,41.0,9.64,10.67,12.7,47.59359,-54.27349
2017-09-10 23:50:00+00:00,43.0,43.0,9.69,10.75,12.7,47.59359,-54.27349
